Location: Newark
(52.0167°N, 6.1333°E)
Time: 08:22:35
(UTC+00:00)

N. Korean satellite - Pass Details

Date: 25 September 2019
Orbit: 455 x 508 km, 97.2° (Epoch: 18 October)

Event Time Altitude Azimuth Distance (km) Brightness Sun altitude
Rises 04:23:54 0° 32° (NNE) 2,486 10.9 -10.3°
Reaches altitude 10° 04:27:15 10° 68° (ENE) 1,605 10.7 -9.8°
Maximum altitude 04:28:25 11° 88° (E) 1,520 10.6 -9.6°
Drops below altitude 10° 04:29:35 10° 108° (ESE) 1,602 10.3 -9.4°
Sets 04:32:54 0° 144° (SE) 2,475 10.5 -8.9°
